Weather History for Puyallup, WA

Change the Weather History Date:

Sunday, September 22, 2013

  Actual Average (KTCM) Record (KTCM)
Temperature  
Mean Temperature 56 °F -  
Max Temperature 62 °F 68 °F 91 °F (1990)
Min Temperature 51 °F 44 °F 35 °F (1956)
Degree Days  
Heating Degree Days 8    
Growing Degree Days 6 (Base 50)    
Moisture  
Dew Point 53 °F    
Average Humidity 91    
Maximum Humidity 100    
Minimum Humidity 63    
Precipitation  
Precipitation 0.65 in - - ()
Sea Level Pressure  
Sea Level Pressure 29.70 in    
Wind  
Wind Speed 2 mph (SSW)    
Max Wind Speed 12 mph    
Max Gust Speed 26 mph    
Visibility 8 miles    
Events Rain    
Averages and records for this station are not official NWS values.
T = Trace of Precipitation, MM = Missing Value Source: NWS Daily Summary

Daily Weather History Graph

Daily Weather History Graph

Search for Another Location

Airport:

Trip Planner

Search our weather history database for the weather conditions in past years. The results will help you decide how hot, cold, wet, or windy it might be!

Date:

Astronomy

Sep. 22, 2013 Rise Set
Actual Time 6:56 AM PDT 7:06 PM PDT
Civil Twilight 6:25 AM PDT 7:36 PM PDT
Nautical Twilight 5:50 AM PDT 8:12 PM PDT
Astronomical Twilight 5:13 AM PDT 8:49 PM PDT
Moon 8:43 PM PDT (9/22) 10:37 AM PDT (9/22)
Length of Visible Light 13h 10m
Length of Day
12h 09m
Waning Gibbous, 88% of the Moon is Illuminated
Sep 22
Waning Gibbous
Sep 26
Last Quarter
Oct 4
New
Oct 11
First Quarter
Oct 18
Full

Hourly Weather History & Observations

Time (PDT) Temp. Dew Point Humidity Pressure Visibility Wind Dir Wind Speed Gust Speed Precip Events Conditions
12:15 AM 55.4 °F 55.4 °F 100% 29.74 in 10.0 mi Calm Calm - N/A   Unknown
12:35 AM 55.4 °F 55.4 °F 100% 29.74 in 7.0 mi Calm Calm - N/A Rain Light Rain
12:55 AM 55.4 °F 55.4 °F 100% 29.74 in 10.0 mi Calm Calm - N/A   Unknown
1:15 AM 55.4 °F 55.4 °F 100% 29.74 in 10.0 mi Calm Calm - N/A   Unknown
1:35 AM 55.4 °F 55.4 °F 100% 29.74 in 10.0 mi Calm Calm - N/A   Unknown
1:55 AM 55.4 °F 55.4 °F 100% 29.74 in 10.0 mi Calm Calm - N/A   Unknown
2:15 AM 55.4 °F 55.4 °F 100% 29.74 in 10.0 mi Calm Calm - N/A   Unknown
2:35 AM 55.4 °F 55.4 °F 100% 29.74 in 10.0 mi Calm Calm - N/A   Unknown
2:55 AM 55.4 °F 55.4 °F 100% 29.74 in 3.0 mi Calm Calm - N/A Rain Light Rain
3:15 AM 55.4 °F 55.4 °F 100% 29.73 in 10.0 mi Calm Calm - N/A   Unknown
3:35 AM 55.4 °F 55.4 °F 100% 29.72 in 10.0 mi Calm Calm - N/A   Unknown
3:55 AM 55.4 °F 55.4 °F 100% 29.72 in 10.0 mi Calm Calm - N/A   Unknown
4:15 AM 55.4 °F 53.6 °F 94% 29.73 in 10.0 mi Calm Calm - N/A   Unknown
4:35 AM 55.4 °F 53.6 °F 94% 29.72 in 7.0 mi Calm Calm - N/A Rain Light Rain
4:55 AM 55.4 °F 55.4 °F 100% 29.72 in 6.0 mi Calm Calm - N/A   Mist
5:15 AM 53.6 °F 53.6 °F 100% 29.72 in 3.0 mi Calm Calm - 0.01 in Rain Light Rain
5:35 AM 55.4 °F 53.6 °F 94% 29.72 in 10.0 mi Calm Calm - 0.01 in   Unknown
5:55 AM 55.4 °F 53.6 °F 94% 29.72 in 10.0 mi Calm Calm - 0.01 in   Unknown
6:15 AM 55.4 °F 53.6 °F 94% 29.72 in 10.0 mi Calm Calm - N/A   Unknown
6:35 AM 55.4 °F 53.6 °F 94% 29.72 in 10.0 mi Calm Calm - N/A   Unknown
6:55 AM 55.4 °F 53.6 °F 94% 29.72 in 10.0 mi Calm Calm - N/A   Unknown
7:15 AM 55.4 °F 51.8 °F 88% 29.72 in 10.0 mi South 3.5 mph - N/A   Unknown
7:35 AM 55.4 °F 50.0 °F 82% 29.71 in 10.0 mi Calm Calm - N/A   Unknown
7:55 AM 55.4 °F 50.0 °F 82% 29.71 in 10.0 mi Calm Calm - N/A   Unknown
8:15 AM 55.4 °F 50.0 °F 82% 29.71 in 10.0 mi South 4.6 mph - N/A   Unknown
8:35 AM 55.4 °F 50.0 °F 82% 29.70 in 10.0 mi Calm Calm - N/A Rain Light Rain
8:55 AM 55.4 °F 50.0 °F 82% 29.69 in 10.0 mi South 4.6 mph - 0.01 in Rain Light Rain
9:15 AM 55.4 °F 50.0 °F 82% 29.68 in 10.0 mi South 6.9 mph - N/A   Unknown
9:35 AM 57.2 °F 48.2 °F 72% 29.67 in 10.0 mi South 10.4 mph - N/A Rain Light Rain
9:55 AM 57.2 °F 48.2 °F 72% 29.66 in 10.0 mi South 11.5 mph 18.4 mph N/A   Unknown
10:15 AM 57.2 °F 48.2 °F 72% 29.65 in 10.0 mi South 9.2 mph 16.1 mph N/A   Unknown
10:35 AM 59.0 °F 48.2 °F 67% 29.63 in 10.0 mi SSW 4.6 mph 17.3 mph N/A   Unknown
10:55 AM 60.8 °F 48.2 °F 63% 29.63 in 10.0 mi South 11.5 mph 19.6 mph N/A   Unknown
11:15 AM 60.8 °F 48.2 °F 63% 29.62 in 10.0 mi SSW 11.5 mph 21.9 mph N/A   Unknown
11:35 AM 59.0 °F 48.2 °F 67% 29.60 in 10.0 mi South 10.4 mph 20.7 mph N/A   Unknown
11:55 AM 59.0 °F 48.2 °F 67% 29.60 in 10.0 mi South 10.4 mph 26.5 mph N/A Rain Light Rain
12:15 PM 59.0 °F 50.0 °F 72% 29.59 in 10.0 mi South 9.2 mph 18.4 mph N/A   Unknown
12:35 PM 57.2 °F 50.0 °F 77% 29.60 in 7.0 mi South 11.5 mph - N/A   Unknown
12:55 PM 57.2 °F 50.0 °F 77% 29.61 in 4.0 mi SSW 6.9 mph 20.7 mph 0.02 in Rain Light Rain
1:15 PM 55.4 °F 51.8 °F 88% 29.62 in 2.5 mi South 8.1 mph - 0.05 in Rain Rain
1:35 PM 53.6 °F 53.6 °F 100% 29.62 in 2.0 mi Calm Calm - 0.15 in Rain Heavy Rain
1:55 PM 53.6 °F 53.6 °F 100% 29.62 in 2.5 mi Calm Calm - 0.20 in Rain Light Rain
2:15 PM 55.4 °F 55.4 °F 100% 29.63 in 5.0 mi Calm Calm - 0.01 in Rain Light Rain
2:35 PM 55.4 °F 55.4 °F 100% 29.63 in 4.0 mi Calm Calm - 0.03 in Rain Light Rain
2:55 PM 55.4 °F 55.4 °F 100% 29.65 in 2.5 mi Calm Calm - 0.07 in Rain Light Rain
3:15 PM 55.4 °F 55.4 °F 100% 29.64 in 4.0 mi Calm Calm - 0.01 in Rain Light Rain
3:35 PM 55.4 °F 55.4 °F 100% 29.64 in 10.0 mi Calm Calm - 0.02 in   Unknown
3:55 PM 57.2 °F 57.2 °F 100% 29.64 in 10.0 mi South 4.6 mph - 0.02 in   Unknown
4:15 PM 59.0 °F 57.2 °F 94% 29.65 in 10.0 mi SSW 5.8 mph - N/A   Unknown
4:35 PM 59.0 °F 55.4 °F 88% 29.65 in 10.0 mi Calm Calm - N/A   Unknown
4:55 PM 60.8 °F 55.4 °F 82% 29.66 in 10.0 mi Calm Calm - N/A   Unknown
5:15 PM 62.6 °F 55.4 °F 77% 29.66 in 10.0 mi SSW 3.5 mph - N/A   Unknown
5:35 PM 59.0 °F 55.4 °F 88% 29.67 in 10.0 mi Calm Calm - N/A   Unknown
5:55 PM 57.2 °F 55.4 °F 94% 29.69 in 4.0 mi Calm Calm - 0.05 in Rain Rain
6:15 PM 55.4 °F 55.4 °F 100% 29.70 in 2.0 mi NW 4.6 mph - 0.11 in Rain Heavy Rain
6:35 PM 53.6 °F 51.8 °F 94% 29.69 in 1.8 mi Calm Calm - 0.24 in Rain Light Rain
6:55 PM 53.6 °F 53.6 °F 100% 29.70 in 10.0 mi Calm Calm - 0.25 in   Unknown
7:15 PM 51.8 °F 51.8 °F 100% 29.71 in 4.0 mi Calm Calm - 0.01 in Rain Light Rain
7:35 PM 53.6 °F 53.6 °F 100% 29.71 in 7.0 mi Calm Calm - 0.02 in Rain Light Rain
7:55 PM 53.6 °F 53.6 °F 100% 29.72 in 10.0 mi Calm Calm - 0.02 in   Unknown
8:15 PM 53.6 °F 53.6 °F 100% 29.73 in 10.0 mi Calm Calm - N/A   Unknown
8:35 PM 53.6 °F 53.6 °F 100% 29.74 in 10.0 mi Calm Calm - N/A   Unknown
8:55 PM 53.6 °F 53.6 °F 100% 29.74 in 10.0 mi Calm Calm - N/A   Unknown
9:15 PM 53.6 °F 53.6 °F 100% 29.75 in 10.0 mi Calm Calm - N/A   Unknown
9:35 PM 55.4 °F 53.6 °F 94% 29.75 in 10.0 mi Calm Calm - N/A   Unknown
9:55 PM 55.4 °F 53.6 °F 94% 29.76 in 10.0 mi SSW 3.5 mph - N/A   Unknown
10:15 PM 55.4 °F 53.6 °F 94% 29.76 in 10.0 mi Calm Calm - N/A   Unknown
10:35 PM 55.4 °F 53.6 °F 94% 29.77 in 10.0 mi Calm Calm - N/A Rain Light Rain
10:55 PM 55.4 °F 53.6 °F 94% 29.77 in 10.0 mi Calm Calm - N/A   Unknown
11:15 PM 55.4 °F 53.6 °F 94% 29.78 in 10.0 mi Calm Calm - N/A   Unknown
11:35 PM 55.4 °F 51.8 °F 88% 29.78 in 10.0 mi Calm Calm - N/A   Unknown
11:55 PM 55.4 °F 51.8 °F 88% 29.79 in 10.0 mi SSW 3.5 mph - N/A   Unknown